ANA86 RJGG-RJTT

Flight info

Callsign ANA86
Flight time 0h 46m
Altitude 29000
Route CHITA3 BOGON Y23 ARTIC Y71 XAC XAC2N
Aircraft A320/M-SDE3FGHIRWY/LB1

Departure

Time 2026-05-04 04:50
Airport Chubu Centrair International Airport (RJGG)

Arrival

Time 2026-05-04 05:37
Airport Tokyo Haneda International Airport (RJTT)
Time Latitude Longitude Altitude Speed Heading
2026-05-04 04:45 34.85719 136.80924 28 ft 18 kts 168°
2026-05-04 04:47 34.85171 136.80943 28 ft 15 kts 169°
2026-05-04 04:47 34.85072 136.80967 28 ft 14 kts 169°
2026-05-04 04:47 34.84975 136.80990 28 ft 14 kts 169°
2026-05-04 04:47 34.84882 136.81012 28 ft 13 kts 168°
2026-05-04 04:48 34.84796 136.81034 28 ft 12 kts 169°
2026-05-04 04:49 34.84338 136.81101 27 ft 16 kts 240°
2026-05-04 04:49 34.84314 136.80960 23 ft 19 kts 263°
2026-05-04 04:49 34.84395 136.80882 24 ft 17 kts 348°
2026-05-04 04:49 34.84530 136.80849 24 ft 32 kts 349°
2026-05-04 04:50 34.84999 136.80738 26 ft 102 kts 349°
2026-05-04 04:50 34.85869 136.80529 27 ft 154 kts 348°
2026-05-04 04:50 34.87003 136.80227 407 ft 167 kts 335°
2026-05-04 04:50 34.87870 136.79414 1105 ft 159 kts 292°
2026-05-04 04:51 34.88022 136.78107 1743 ft 165 kts 261°
2026-05-04 04:51 34.87399 136.76808 2004 ft 195 kts 234°
2026-05-04 04:51 34.86442 136.75490 2348 ft 221 kts 234°
2026-05-04 04:51 34.85379 136.74009 2870 ft 241 kts 233°
2026-05-04 04:52 34.84245 136.72462 3726 ft 248 kts 229°
2026-05-04 04:52 34.82711 136.71420 4641 ft 266 kts 197°
2026-05-04 04:52 34.80838 136.71446 5589 ft 278 kts 179°
2026-05-04 04:52 34.78911 136.71885 6517 ft 288 kts 169°
2026-05-04 04:53 34.77093 136.73028 7415 ft 302 kts 150°
2026-05-04 04:53 34.75544 136.74826 8303 ft 315 kts 136°
2026-05-04 04:53 34.74361 136.77131 9188 ft 326 kts 126°
2026-05-04 04:53 34.73262 136.79555 10010 ft 330 kts 127°
2026-05-04 04:54 34.72113 136.82044 10415 ft 349 kts 128°
2026-05-04 04:54 34.70883 136.84672 10648 ft 373 kts 127°
2026-05-04 04:54 34.69566 136.87496 10955 ft 392 kts 127°
2026-05-04 04:54 34.68318 136.90504 11576 ft 407 kts 119°
2026-05-04 04:55 34.67480 136.93850 12243 ft 422 kts 108°
2026-05-04 04:55 34.67043 136.97423 12853 ft 432 kts 103°
2026-05-04 04:55 34.66636 137.01066 13518 ft 438 kts 105°
2026-05-04 04:55 34.66210 137.04743 14100 ft 442 kts 105°
2026-05-04 04:56 34.65772 137.08456 14692 ft 447 kts 106°
2026-05-04 04:56 34.65332 137.12155 15270 ft 450 kts 106°
2026-05-04 04:56 34.64882 137.15939 15844 ft 454 kts 107°
2026-05-04 04:56 34.64431 137.19750 16445 ft 458 kts 107°
2026-05-04 04:57 34.63978 137.23594 17008 ft 462 kts 107°
2026-05-04 04:57 34.63520 137.27468 17560 ft 466 kts 107°
2026-05-04 04:57 34.63058 137.31381 18080 ft 469 kts 108°
2026-05-04 04:57 34.62536 137.35291 18499 ft 468 kts 112°
2026-05-04 04:58 34.61640 137.39053 18924 ft 460 kts 122°
2026-05-04 04:58 34.60421 137.42556 19347 ft 457 kts 126°
2026-05-04 04:58 34.59131 137.46102 19780 ft 461 kts 126°
2026-05-04 04:58 34.57827 137.49677 20197 ft 465 kts 126°
2026-05-04 04:59 34.56511 137.53280 20608 ft 469 kts 126°
2026-05-04 04:59 34.55300 137.57007 20961 ft 483 kts 117°
2026-05-04 04:59 34.54523 137.61038 21383 ft 499 kts 107°
2026-05-04 04:59 34.54259 137.65294 21772 ft 513 kts 97°
2026-05-04 05:00 34.54290 137.69640 22155 ft 518 kts 96°
2026-05-04 05:00 34.54311 137.74022 22537 ft 521 kts 96°
2026-05-04 05:00 34.54311 137.82807 23297 ft 527 kts 97°
2026-05-04 05:01 34.54305 137.87275 23581 ft 531 kts 98°
2026-05-04 05:01 34.54267 137.91748 23929 ft 531 kts 97°
2026-05-04 05:01 34.54276 137.96241 24241 ft 535 kts 96°
2026-05-04 05:01 34.54298 138.00756 24527 ft 536 kts 96°
2026-05-04 05:02 34.54320 138.05275 24907 ft 536 kts 97°
2026-05-04 05:02 34.54331 138.09801 25251 ft 537 kts 97°
2026-05-04 05:02 34.54328 138.14337 25580 ft 539 kts 97°
2026-05-04 05:02 34.54313 138.18823 25909 ft 540 kts 97°
2026-05-04 05:03 34.54291 138.23386 26220 ft 542 kts 97°
2026-05-04 05:03 34.54270 138.27957 26584 ft 542 kts 97°
2026-05-04 05:04 34.55882 138.41732 27508 ft 565 kts 74°
2026-05-04 05:04 34.57411 138.46135 27775 ft 569 kts 65°
2026-05-04 05:04 34.59207 138.50419 28069 ft 570 kts 65°
2026-05-04 05:06 34.70999 138.80515 23906 ft 542 kts 81°
2026-05-04 05:06 34.71561 138.84988 23111 ft 532 kts 94°
2026-05-04 05:06 34.71562 138.89449 22351 ft 524 kts 97°
2026-05-04 05:07 34.71527 138.93796 21675 ft 519 kts 96°
2026-05-04 05:07 34.71493 138.98163 20988 ft 516 kts 97°
2026-05-04 05:07 34.71466 139.02508 20300 ft 512 kts 97°
2026-05-04 05:09 34.71294 139.35959 15481 ft 477 kts 95°
2026-05-04 05:09 34.71644 139.39981 14927 ft 482 kts 84°
2026-05-04 05:10 34.72569 139.43902 14303 ft 485 kts 72°
2026-05-04 05:10 34.74061 139.47577 13868 ft 481 kts 61°
2026-05-04 05:10 34.75689 139.51048 13749 ft 465 kts 62°
2026-05-04 05:10 34.77225 139.54380 13616 ft 451 kts 62°
2026-05-04 05:11 34.78724 139.57668 13505 ft 438 kts 63°
2026-05-04 05:11 34.80173 139.60866 13393 ft 425 kts 63°
2026-05-04 05:11 34.81580 139.63975 13267 ft 414 kts 63°
2026-05-04 05:11 34.83088 139.66904 13145 ft 404 kts 50°
2026-05-04 05:12 34.85054 139.69253 13006 ft 390 kts 31°
2026-05-04 05:12 34.87321 139.70861 13031 ft 365 kts 14°
2026-05-04 05:12 34.89650 139.71873 13015 ft 350 kts
2026-05-04 05:12 34.91952 139.72812 13002 ft 348 kts
2026-05-04 05:13 34.94211 139.73734 13129 ft 348 kts
2026-05-04 05:13 34.96509 139.74672 13152 ft 350 kts 10°
2026-05-04 05:13 34.98720 139.75999 13161 ft 360 kts 27°
2026-05-04 05:13 35.00675 139.77951 13168 ft 367 kts 41°
2026-05-04 05:14 35.02496 139.80132 13141 ft 367 kts 41°
2026-05-04 05:14 35.04319 139.82313 13139 ft 367 kts 40°
2026-05-04 05:14 35.06139 139.84501 13134 ft 368 kts 44°
2026-05-04 05:14 35.07636 139.87032 13121 ft 367 kts 68°
2026-05-04 05:15 35.08370 139.89930 13124 ft 358 kts 91°
2026-05-04 05:15 35.08334 139.92889 13130 ft 341 kts 112°
2026-05-04 05:15 35.07625 139.95539 13147 ft 317 kts 132°
2026-05-04 05:15 35.06489 139.97779 13150 ft 309 kts 139°
2026-05-04 05:16 35.05303 139.99974 13143 ft 311 kts 138°
2026-05-04 05:16 35.04116 140.02182 13146 ft 311 kts 138°
2026-05-04 05:16 35.02962 140.04434 13163 ft 319 kts 131°
2026-05-04 05:16 35.02141 140.07025 13161 ft 337 kts 115°
2026-05-04 05:17 35.01635 140.09838 13145 ft 340 kts 113°
2026-05-04 05:17 35.01139 140.12649 13156 ft 339 kts 113°
2026-05-04 05:17 35.00646 140.15417 13155 ft 338 kts 114°
2026-05-04 05:17 35.00173 140.18232 13169 ft 343 kts 108°
2026-05-04 05:18 35.00077 140.21181 13158 ft 354 kts 93°
2026-05-04 05:18 35.00324 140.24185 13160 ft 356 kts 91°
2026-05-04 05:18 35.00576 140.27190 13170 ft 356 kts 91°
2026-05-04 05:18 35.00824 140.30197 13170 ft 356 kts 91°
2026-05-04 05:19 35.01207 140.33197 13165 ft 362 kts 80°
2026-05-04 05:19 35.02071 140.36092 13168 ft 366 kts 65°
2026-05-04 05:19 35.03211 140.38874 13164 ft 367 kts 65°
2026-05-04 05:19 35.04452 140.41540 13169 ft 367 kts 50°
2026-05-04 05:20 35.06282 140.43644 13158 ft 357 kts 25°
2026-05-04 05:20 35.08485 140.44856 13165 ft 340 kts
2026-05-04 05:20 35.10763 140.45173 12882 ft 322 kts 342°
2026-05-04 05:20 35.12864 140.44672 12565 ft 296 kts 324°
2026-05-04 05:21 35.14629 140.43593 12260 ft 273 kts 309°
2026-05-04 05:21 35.16109 140.42216 11999 ft 266 kts 307°
2026-05-04 05:21 35.17567 140.40840 11732 ft 263 kts 307°
2026-05-04 05:21 35.19011 140.39483 11457 ft 261 kts 307°
2026-05-04 05:22 35.20420 140.38156 11204 ft 258 kts 307°
2026-05-04 05:22 35.21840 140.36819 10951 ft 256 kts 307°
2026-05-04 05:22 35.23247 140.35492 10698 ft 255 kts 307°
2026-05-04 05:22 35.24648 140.34168 10430 ft 254 kts 307°
2026-05-04 05:23 35.26038 140.32852 10189 ft 251 kts 307°
2026-05-04 05:23 35.27417 140.31546 9936 ft 249 kts 307°
2026-05-04 05:23 35.28785 140.30249 9682 ft 249 kts 307°
2026-05-04 05:23 35.30149 140.28957 9434 ft 246 kts 308°
2026-05-04 05:24 35.31479 140.27699 9170 ft 244 kts 308°
2026-05-04 05:24 35.32818 140.26428 8924 ft 243 kts 308°
2026-05-04 05:24 35.34148 140.25162 8676 ft 241 kts 309°
2026-05-04 05:24 35.35474 140.23899 8429 ft 241 kts 309°
2026-05-04 05:25 35.36839 140.22696 8191 ft 248 kts 318°
2026-05-04 05:25 35.38507 140.21930 7897 ft 268 kts 336°
2026-05-04 05:25 35.40401 140.21682 7531 ft 276 kts 343°
2026-05-04 05:25 35.42317 140.21495 7145 ft 276 kts 343°
2026-05-04 05:26 35.44222 140.21317 6828 ft 274 kts 343°
2026-05-04 05:26 35.46094 140.21138 6522 ft 271 kts 346°
2026-05-04 05:26 35.47972 140.20954 6157 ft 272 kts 346°
2026-05-04 05:26 35.49837 140.20768 5884 ft 267 kts 346°
2026-05-04 05:27 35.51684 140.20580 5503 ft 266 kts 346°
2026-05-04 05:28 35.60549 140.13456 4764 ft 195 kts 270°
2026-05-04 05:29 35.60556 140.11858 4762 ft 180 kts 266°
2026-05-04 05:29 35.60549 140.10374 4765 ft 169 kts 266°
2026-05-04 05:29 35.60542 140.08927 4769 ft 172 kts 266°
2026-05-04 05:29 35.60532 140.07427 4761 ft 175 kts 266°
2026-05-04 05:31 35.60496 139.98660 3216 ft 133 kts 263°
2026-05-04 05:31 35.60489 139.97526 3036 ft 134 kts 263°
2026-05-04 05:32 35.60482 139.96390 2978 ft 133 kts 263°
2026-05-04 05:32 35.60475 139.95270 2845 ft 132 kts 262°
2026-05-04 05:32 35.60468 139.94143 2696 ft 132 kts 260°
2026-05-04 05:33 35.60449 139.91811 2341 ft 145 kts 261°
2026-05-04 05:33 35.60438 139.90598 2101 ft 136 kts 258°
2026-05-04 05:33 35.60435 139.89465 1920 ft 130 kts 257°
2026-05-04 05:33 35.60429 139.88361 1737 ft 128 kts 257°
2026-05-04 05:34 35.60422 139.87270 1557 ft 127 kts 257°
2026-05-04 05:34 35.60416 139.86203 1385 ft 126 kts 257°
2026-05-04 05:34 35.60408 139.85123 1204 ft 127 kts 258°
2026-05-04 05:34 35.60263 139.84072 1024 ft 125 kts 245°
2026-05-04 05:35 35.60038 139.83032 966 ft 126 kts 245°
2026-05-04 05:35 35.59779 139.82007 860 ft 125 kts 242°
2026-05-04 05:35 35.59466 139.80983 753 ft 128 kts 239°
2026-05-04 05:35 35.59035 139.80037 634 ft 127 kts 229°
2026-05-04 05:36 35.58463 139.79229 504 ft 126 kts 219°
2026-05-04 05:36 35.57771 139.78581 343 ft 127 kts 211°
2026-05-04 05:36 35.57044 139.77964 166 ft 126 kts 211°
2026-05-04 05:36 35.56355 139.77371 49 ft 110 kts 211°
2026-05-04 05:37 35.55826 139.76919 28 ft 60 kts 215°
2026-05-04 05:37 35.55675 139.76790 27 ft 14 kts 214°
2026-05-04 05:37 35.55610 139.76736 27 ft 15 kts 214°
2026-05-04 05:38 35.55554 139.76695 28 ft 16 kts 208°
2026-05-04 05:38 35.55448 139.76646 27 ft 16 kts 194°
2026-05-04 05:38 35.55341 139.76622 22 ft 15 kts 187°
2026-05-04 05:38 35.55284 139.76707 23 ft 15 kts 73°
2026-05-04 05:39 35.55352 139.76785 25 ft 14 kts 34°
2026-05-04 05:39 35.55512 139.76923 24 ft 15 kts 34°
2026-05-04 05:39 35.55600 139.76996 23 ft 15 kts 34°
2026-05-04 05:40 35.55779 139.77150 24 ft 19 kts 35°
2026-05-04 05:40 35.55834 139.77270 23 ft 15 kts 102°
2026-05-04 05:40 35.55870 139.77391 26 ft 17 kts 59°
2026-05-04 05:41 35.55927 139.77512 22 ft 16 kts 60°
2026-05-04 05:41 35.55979 139.77622 24 ft 14 kts 59°
2026-05-04 05:41 35.56025 139.77718 25 ft 12 kts 59°
2026-05-04 05:41 35.56065 139.77801 26 ft 10 kts 59°
2026-05-04 05:42 35.56106 139.77889 30 ft 19 kts 60°
2026-05-04 05:42 35.56192 139.78070 27 ft 23 kts 60°
2026-05-04 05:42 35.56263 139.78222 26 ft 20 kts 60°
2026-05-04 05:42 35.56328 139.78360 26 ft 18 kts 59°
2026-05-04 05:43 35.56387 139.78487 29 ft 16 kts 68°
2026-05-04 05:43 35.56333 139.78582 27 ft 15 kts 150°
2026-05-04 05:43 35.56239 139.78649 24 ft 16 kts 150°
2026-05-04 05:45 35.55499 139.79136 27 ft 13 kts 213°
2026-05-04 05:45 35.55450 139.79044 27 ft 12 kts 240°
2026-05-04 05:47 35.55326 139.78956 28 ft 9 kts 114°
2026-05-04 05:47 35.55338 139.78999 28 ft 5 kts 65°
2026-05-04 05:47 35.55354 139.79034 27 ft 1 kts 60°
2026-05-04 05:48 35.55359 139.79045 27 ft 0 kts 59°
2026-05-04 05:48 35.55359 139.79044 27 ft 0 kts 59°
2026-05-04 05:49 35.60422 139.87282 1560 ft 127 kts 257°
2026-05-04 05:49 35.57184 139.78086 207 ft 127 kts 211°